DIAMANT R/B, 2017

Orbit data source: Space-Track

DIAMANT R/B, 2017 is space debris in LEO originally from a launch on Thu, 17 Feb 1966 UTC launched from the Hamma Guira Space Track Range (HGSTR). Debris objects in space refer to the collection of defunct objects orbiting the Earth. Examples of debris include non-operational satellites, rocket bodies, and fragments generated from explosions, collisions, or faulty payload assembly.

Loading next visibility...
Identifier
2017, 1966-013B
Orbit
LEO
Country
Flag of FRFR
Related business
Manufacturer
Sud
Mission
Spacecraft
Bus & Motor
RUBIS, Unknown motor
Mass
65 kg wet, 65 kg dry
Launch date (UTC)
1966-02-17 (60 years ago)
Launch vehicle
Unknown
Launch site
Hamma Guira Space Track Range (HGSTR)
Object type
Payload
Rocket body
Debris
Shape & HBR
Unknown
Radar Cross Section
Medium (>0.1 m² and <1 m²)

Expand to show TLE details & history
Last TLE update: 1 day ago

TLE from 1 day ago
0 DIAMANT R/B
1 02017U 66013B   25310.48277085  .00003866  00000-0  10070-2 0  9991
2 02017  34.0678 359.1641 1039347 196.1664 160.3261 12.92354102740930
Epoch: 2025-11-06T11:35Z
TLE epoch observation values (Epoch: 2025-11-06T11:35:11.401Z)
Latitude
-0.00002°
Longitude
139.42612°
Altitude
2,049.782 km
Speed
6.532 km/s
True Right ascension
23h 56m 39s
True Declination
0° 00' 00"
Sunlit
Object was in full shadow at epoch
Visualization orbit readout
Latitude
Unknown
Longitude
Unknown
Altitude
Unknown
Speed
Unknown
Apparent Right ascension
Unknown
Apparent Declination
Unknown
Sunlit
N/A
Visualization observer readout
Local Sidereal Time
07:30:09
Azimuth
Unknown
Elevation
Unknown
Doppler factor
Unknown
Orbital elements
Apogee altitude
2,092.825 km
Perigee altitude
497.754 km
Semi-major axis
7,673.427 km
Eccentricity
0.10393
Inclination
34.0678°
RAAN
359.1641°
Arg. of periapsis
196.1664°
True anomaly
163.89491°
Mean anomaly
160.3261°
Eccentric anomaly
162.15134°
Mean motion
3.22893 °/min
Orbital period
111.49 mins
BSTAR
0.001007
Loading maneuver chart data...
Computing Atmospheric mass density...

Documentation

Showing up to 5 results
|